FW7729 Weather Reports


Display with metric or nautical units.
time (UTC)temp
F
wind
direction
speed
MPH
gust
MPH
rain 1hr
in
rain 24hr
in
rain mn
in
humidity
%
barometer
mb
20260504041258 46 285 0.0 0.0 0.00 0.00 0.00 79 1015.3
20260504040725 46 285 0.0 0.0 0.00 0.00 0.00 79 1015.3
20260504040150 46 285 0.0 0.0 0.00 0.00 0.00 79 1015.3
20260504035616 46 285 0.0 0.0 0.00 0.00 0.00 77 1015.3
20260504035042 46 285 0.0 0.0 0.00 0.00 0.00 78 1015.4
20260504034508 46 285 0.0 0.0 0.00 0.00 0.00 77 1015.4
20260504033404 46 285 0.0 0.0 0.00 0.00 0.00 79 1015.4
20260504032830 46 285 0.0 0.0 0.00 0.00 0.00 79 1015.3
20260504031726 46 285 0.0 0.0 0.00 0.00 0.00 77 1015.2
20260504030052 46 285 0.0 0.0 0.00 0.00 0.00 78 1015.2
20260504024948 47 285 0.0 0.0 0.00 0.00 0.00 76 1015.1
20260504024414 47 285 0.0 0.0 0.00 0.00 0.00 76 1015.1
20260504023840 47 285 0.0 0.0 0.00 0.00 0.00 76 1015.0
20260504023306 47 285 0.0 0.0 0.00 0.00 0.00 76 1015.0
20260504022202 48 285 0.0 0.0 0.00 0.00 0.00 74 1015.0
20260504021628 48 285 0.0 0.0 0.00 0.00 0.00 72 1015.0
20260504021054 48 285 0.0 0.0 0.00 0.00 0.00 70 1014.9
20260504015950 49 285 0.0 0.0 0.00 0.00 0.00 71 1014.9
20260504013746 50 285 0.0 0.0 0.00 0.00 0.00 68 1014.6
20260504011541 51 285 0.0 0.0 0.00 0.00 0.00 65 1014.5
20260504011007 51 285 0.0 0.0 0.00 0.00 0.00 66 1014.5
20260504005903 52 285 0.0 0.0 0.00 0.00 0.00 65 1014.5
20260504005329 52 285 0.0 0.0 0.00 0.00 0.00 64 1014.4
20260504004225 53 285 0.0 0.0 0.00 0.00 0.00 61 1014.2
20260504003651 54 285 0.0 0.0 0.00 0.00 0.00 61 1014.3
20260504002547 55 293 0.0 0.0 0.00 0.00 0.00 58 1014.2
20260504001443 56 293 0.0 0.0 0.00 0.00 0.00 56 1014.1
20260504000909 56 293 0.0 0.0 0.00 0.00 0.00 55 1014.0
20260504000335 57 293 0.0 0.0 0.00 0.00 0.00 54 1014.0
20260503235801 57 293 0.0 0.0 0.00 0.00 0.00 53 1014.0
20260503235227 58 293 0.0 0.0 0.00 0.00 0.00 53 1013.9
20260503234653 59 293 0.0 0.0 0.00 0.00 0.00 53 1013.9
20260503233549 59 293 0.0 0.0 0.00 0.00 0.00 52 1013.9
20260503231915 60 293 0.0 0.0 0.00 0.00 0.00 47 1013.7
20260503231341 60 293 0.0 0.0 0.00 0.00 0.00 47 1013.7
20260503230807 60 293 0.0 0.0 0.00 0.00 0.00 46 1013.6
20260503225702 60 332 1.0 0.0 0.00 0.00 0.00 46 1013.7
20260503224559 60 260 1.0 0.0 0.00 0.00 0.00 46 1013.6
20260503224024 61 276 0.0 0.0 0.00 0.00 0.00 47 1013.6
20260503223450 61 276 0.0 0.0 0.00 0.00 0.00 46 1013.6
20260503222916 61 276 0.0 0.0 0.00 0.00 0.00 46 1013.6
20260503222342 61 276 0.0 0.0 0.00 0.00 0.00 47 1013.6
20260503221808 61 276 1.0 0.0 0.00 0.00 0.00 46 1013.8
20260503220704 61 283 0.0 0.0 0.00 0.00 0.00 46 1013.8
20260503220130 60 304 0.0 0.0 0.00 0.00 0.00 47 1013.8
20260503214456 60 295 1.0 0.0 0.00 0.00 0.00 45 1013.7
20260503213348 60 328 1.0 0.0 0.00 0.00 0.00 46 1013.9
20260503212244 60 223 2.0 0.0 0.00 0.00 0.00 46 1013.9
20260503211140 60 297 1.0 0.0 0.00 0.00 0.00 46 1014.0
20260503210606 60 299 1.0 0.0 0.00 0.00 0.00 47 1014.0
20260503210032 60 213 1.0 0.0 0.00 0.00 0.00 49 1013.8
20260503205458 60 295 1.0 0.0 0.00 0.00 0.00 46 1014.1
20260503204924 60 281 2.0 0.0 0.00 0.00 0.00 46 1014.3
20260503204350 59 231 3.0 0.0 0.00 0.00 0.00 46 1014.0
20260503203816 59 354 0.0 0.0 0.00 0.00 0.00 45 1013.9
20260503203241 59 286 2.0 0.0 0.00 0.00 0.00 45 1014.1
20260503202708 59 260 1.0 0.0 0.00 0.00 0.00 47 1014.0
20260503202133 59 302 2.0 0.0 0.00 0.00 0.00 48 1014.2
20260503201559 59 288 0.0 0.0 0.00 0.00 0.00 49 1014.3
20260503200455 58 320 1.0 0.0 0.00 0.00 0.00 48 1014.5
20260503195921 58 311 1.0 0.0 0.00 0.00 0.00 48 1014.6
20260503193717 58 339 0.0 0.0 0.00 0.00 0.00 48 1014.8
20260503193143 58 325 1.0 0.0 0.00 0.00 0.00 49 1015.0
20260503192609 58 337 2.0 0.0 0.00 0.00 0.00 51 1015.3
20260503191505 58 328 1.0 0.0 0.00 0.00 0.00 48 1015.3
20260503190931 58 289 3.0 0.0 0.00 0.00 0.00 49 1015.4
20260503185826 57 247 4.0 0.0 0.00 0.00 0.00 50 1015.5
20260503184722 57 228 3.0 0.0 0.00 0.00 0.00 50 1015.6
20260503183618 57 270 2.0 0.0 0.00 0.00 0.00 52 1015.7
20260503182514 56 354 2.0 0.0 0.00 0.00 0.00 52 1015.7
20260503181940 56 255 4.0 0.0 0.00 0.00 0.00 51 1015.9
20260503181406 56 269 1.0 0.0 0.00 0.00 0.00 54 1015.8
20260503180832 56 256 1.0 0.0 0.00 0.00 0.00 52 1015.8
20260503180258 56 259 2.0 0.0 0.00 0.00 0.00 52 1015.9
20260503175724 56 226 4.0 0.0 0.00 0.00 0.00 52 1016.0
20260503175150 56 343 1.0 0.0 0.00 0.00 0.00 53 1016.0
20260503174046 55 287 2.0 0.0 0.00 0.00 0.00 52 1016.1
20260503173512 56 262 2.0 0.0 0.00 0.00 0.00 53 1016.2
20260503171256 55 291 2.0 0.0 0.00 0.00 0.00 54 1016.2
20260503170722 55 275 3.0 1.0 0.00 0.00 0.00 53 1016.2
20260503170148 54 247 1.0 0.0 0.00 0.00 0.00 55 1016.3
20260503110709 40 308 0.0 0.0 0.00 0.00 0.00 87 1016.1
20260503110135 39 308 0.0 0.0 0.00 0.00 0.00 89 1016.1
20260503081510 41 308 0.0 0.0 0.00 0.00 0.00 85 1014.4
20260503080936 41 308 0.0 0.0 0.00 0.00 0.00 85 1014.4
20260503080402 41 308 0.0 0.0 0.00 0.00 0.00 84 1014.3
20260503071937 43 308 0.0 0.0 0.00 0.00 0.00 79 1014.1
20260503071403 43 308 0.0 0.0 0.00 0.00 0.00 79 1014.1
20260503070829 43 308 0.0 0.0 0.00 0.00 0.00 78 1014.1
20260503070255 44 310 0.0 0.0 0.00 0.00 0.00 78 1014.0
20260503060157 45 301 0.0 0.0 0.00 0.00 0.00 76 1013.7
20260503054523 45 335 0.0 0.0 0.00 0.00 0.00 78 1013.6
20260503053949 45 335 0.0 0.0 0.00 0.00 0.00 78 1013.6
20260503053414 45 335 0.0 0.0 0.00 0.00 0.00 78 1013.5
20260503052840 45 336 0.0 0.0 0.00 0.00 0.00 78 1013.6
20260503052307 45 336 0.0 0.0 0.00 0.00 0.00 78 1013.6
20260503051202 46 322 0.0 0.0 0.00 0.00 0.00 78 1013.8
20260503050628 46 322 0.0 0.0 0.00 0.00 0.00 77 1013.7
20260503050054 46 322 0.0 0.0 0.00 0.00 0.00 76 1013.6
20260503044950 46 322 0.0 0.0 0.00 0.00 0.00 76 1013.8
20260503044416 46 301 0.0 0.0 0.00 0.00 0.00 75 1013.8
20260503043842 47 301 0.0 0.0 0.00 0.00 0.00 75 1013.9
20260503043308 47 301 0.0 0.0 0.00 0.00 0.00 75 1013.8
20260503042734 47 301 0.0 0.0 0.00 0.00 0.00 74 1013.8